Weather History for South Bend, IN

Change the Weather History Date:

Saturday, May 10, 2014

  Actual Average Record
Temperature  
Mean Temperature 60 °F 57 °F  
Max Temperature 74 °F 68 °F 90 °F (1895)
Min Temperature 45 °F 47 °F 25 °F (1947)
Degree Days  
Heating Degree Days 5 9  
Month to date heating degree days 91 98  
Since 1 July heating degree days 6819 6129  
Cooling Degree Days 0 1  
Month to date cooling degree days 12 8  
Year to date cooling degree days 14 18  
Growing Degree Days 9 (Base 50)    
Moisture  
Dew Point 42 °F    
Average Humidity 56    
Maximum Humidity 86    
Minimum Humidity 25    
Precipitation  
Precipitation 0.00 in 0.12 in 2.17 in (1981)
Month to date precipitation 0.75 1.17  
Year to date precipitation 10.73 11.06  
Sea Level Pressure  
Sea Level Pressure 29.94 in    
Wind  
Wind Speed 5 mph (WSW)    
Max Wind Speed 17 mph    
Max Gust Speed 22 mph    
Visibility 10 miles    
Events      
T = Trace of Precipitation, MM = Missing Value Source: NWS Daily Summary

Daily Weather History Graph

Daily Weather History Graph

Search for Another Location

Airport:

Trip Planner

Search our weather history database for the weather conditions in past years. The results will help you decide how hot, cold, wet, or windy it might be!

Date:

Astronomy

May. 10, 2014 Rise Set
Actual Time 6:30 AM EDT 8:53 PM EDT
Civil Twilight 5:59 AM EDT 9:24 PM EDT
Nautical Twilight 5:21 AM EDT 10:03 PM EDT
Astronomical Twilight 4:38 AM EDT 10:46 PM EDT
Moon 4:44 PM EDT (5/10) 4:07 AM EDT (5/10)
Length of Visible Light 15h 24m
Length of Day
14h 22m
Waxing Gibbous, 82% of the Moon is Illuminated
May 10
Waxing Gibbous
May 14
Full
May 21
Last Quarter
May 28
New
Jun 5
First Quarter

Hourly Weather History & Observations

Time (EDT) Temp. Dew Point Humidity Pressure Visibility Wind Dir Wind Speed Gust Speed Precip Events Conditions
12:54 AM 55.0 °F 44.1 °F 67% 29.89 in 10.0 mi NW 9.2 mph - N/A   Clear
1:54 AM 53.1 °F 43.0 °F 69% 29.91 in 10.0 mi SSW 3.5 mph - N/A   Scattered Clouds
2:54 AM 50.0 °F 43.0 °F 77% 29.91 in 10.0 mi Calm Calm - N/A   Clear
3:54 AM 50.0 °F 43.0 °F 77% 29.92 in 10.0 mi WSW 3.5 mph - N/A   Clear
4:54 AM 48.0 °F 42.1 °F 80% 29.91 in 10.0 mi Calm Calm - N/A   Clear
5:54 AM 48.0 °F 42.1 °F 80% 29.92 in 10.0 mi South 4.6 mph - N/A   Clear
6:54 AM 46.9 °F 42.1 °F 83% 29.94 in 10.0 mi SSW 3.5 mph - N/A   Clear
7:54 AM 51.1 °F 45.0 °F 80% 29.95 in 10.0 mi Calm Calm - N/A   Clear
8:54 AM 57.0 °F 46.9 °F 69% 29.96 in 10.0 mi South 4.6 mph - N/A   Clear
9:54 AM 61.0 °F 45.0 °F 56% 29.96 in 10.0 mi SSW 4.6 mph - N/A   Clear
10:54 AM 64.0 °F 45.0 °F 50% 29.97 in 10.0 mi SW 6.9 mph - N/A   Clear
11:54 AM 66.9 °F 45.0 °F 45% 29.97 in 10.0 mi SSW 6.9 mph - N/A   Clear
12:54 PM 69.1 °F 44.1 °F 40% 29.97 in 10.0 mi WNW 8.1 mph - N/A   Partly Cloudy
1:54 PM 68.0 °F 41.0 °F 37% 29.96 in 10.0 mi West 6.9 mph - N/A   Scattered Clouds
2:54 PM 70.0 °F 37.0 °F 30% 29.95 in 10.0 mi West 13.8 mph 19.6 mph N/A   Clear
3:54 PM 71.1 °F 35.1 °F 27% 29.94 in 10.0 mi NW 10.4 mph - N/A   Clear
4:54 PM 73.0 °F 35.1 °F 25% 29.93 in 10.0 mi NW 12.7 mph 18.4 mph N/A   Clear
5:54 PM 73.0 °F 35.1 °F 25% 29.94 in 10.0 mi WSW 12.7 mph - N/A   Clear
6:54 PM 72.0 °F 37.9 °F 29% 29.94 in 10.0 mi West 6.9 mph - N/A   Clear
7:54 PM 70.0 °F 42.1 °F 36% 29.94 in 10.0 mi NW 4.6 mph - N/A   Clear
8:54 PM 66.9 °F 39.9 °F 37% 29.94 in 10.0 mi NNE 4.6 mph - N/A   Clear
9:54 PM 61.0 °F 42.1 °F 50% 29.95 in 10.0 mi Calm Calm - N/A   Clear
10:54 PM 55.0 °F 42.1 °F 62% 30.00 in 10.0 mi Calm Calm - N/A   Clear
11:54 PM 55.9 °F 42.1 °F 60% 30.00 in 10.0 mi NE 3.5 mph - N/A   Clear